Tracking 18984 objects as of 24-Feb-2018
HD Live streaming from Space Station
objects crossing your sky now

FENGYUN 1C DEB

Track FENGYUN 1C DEB now!
10-day predictions


NORAD ID: 33632
Int'l Code: 1999-025DDR
Perigee: 696.4 km
Apogee: 777.5 km
Inclination: 99.1 °
Period: 99.4 minutes
Semi major axis: 7107 km
RCS: 0.0035 m2 (small)
Launch date: May 10, 1999
Source: People's Republic of China (PRC)
Launch site: Taiyaun Space Center, China (TSC)

Note: This is SATELLITE DEBRIS
aabbcc
Your satellite tracking list
Your tracking list is empty




NASA's NSSDC Master Catalog

Two Line Element Set (TLE):
1 33632U 99025DDR 18055.12852624  .00001452  00000-0  39092-3 0  9999
2 33632  99.0550 293.6167 0057046  41.9231 318.6307 14.48724528517559
Source of the keplerian elements: AFSPC